RH
25 24 20 18 17 17 18 18 17 16 15 15 14 15 16 15 13 13 13 14 17 19 20 21 19 17 17 18 18 19 20 18 18 19 19 20 21 22 21 22 23 23 21
22 21 19 17 17 17 17 18 18 17 16 15 16 15 14 13 13 14 16 18 19 20 21 21 21 21 21 21 20 21 23 25 23 24 24 24 26 26 26 27 28 29 29
18 18 17 16 15 16 16 17 18 18 16 16 16 14 14 15 17 20 20 20 20 21 21 22 22 22 23 25 26 27 28 31 30 30 31 30 31 32 32 33 34 34 35
17 17 17 17 16 17 18 19 19 17 17 17 15 15 15 17 18 20 21 22 21 21 23 25 25 26 27 29 30 32 34 37 35 36 37 38 38 38 37 37 37 37 38
18 19 20 19 18 18 18 18 18 17 17 15 15 15 16 16 17 19 21 22 22 25 27 28 28 29 31 32 35 38 40 38 37 38 39 37 36 36 36 34 33 34 36
20 20 19 18 18 18 17 17 17 16 15 15 16 16 17 18 20 21 22 24 27 29 30 30 30 30 32 33 35 37 37 38 37 36 34 35 36 36 37 37 35 35 34
19 18 18 18 17 16 16 17 16 15 16 17 17 17 19 20 21 22 24 26 28 30 31 30 30 31 31 31 30 30 30 30 30 30 30 32 34 35 36 36 34 35 32
19 19 18 18 17 16 17 16 16 17 18 18 19 19 20 21 22 24 26 28 28 28 28 26 24 24 25 25 25 27 28 28 28 27 27 27 28 29 30 32 33 32 31
19 19 19 18 17 18 18 18 19 19 20 20 20 21 22 23 24 25 26 25 23 21 22 23 24 26 27 27 28 27 26 25 24 24 26 26 27 27 27 29 32 34 33
20 20 20 20 21 20 20 20 21 21 21 21 22 23 24 24 23 22 20 20 22 23 24 25 26 27 27 27 26 25 25 24 24 26 28 28 28 29 31 32 33 34 35
21 21 21 21 21 21 21 22 22 21 22 23 24 24 23 20 19 20 21 24 25 26 27 29 31 30 29 28 26 25 24 26 27 28 28 28 30 31 31 32 34 35 36
22 23 23 23 22 22 22 23 24 24 24 24 24 22 19 19 21 23 26 28 28 30 33 34 33 32 30 27 25 27 29 31 33 36 36 35 33 33 33 33 32 33 35
20 20 19 20 20 21 21 21 22 22 22 22 21 20 22 23 27 30 32 36 38 41 44 45 47 46 44 43 43 41 39 38 35 33 32 33 35 38 38 37 39 40 43
21 23 24 25 24 25 25 25 26 27 28 28 27 29 35 40 44 46 49 52 54 56 57 56 54 51 48 44 40 37 36 35 34 35 37 42 43 44 47 49 50 51 50
25 29 32 34 36 37 39 40 41 43 44 43 45 48 50 50 50 50 51 54 55 57 58 58 58 54 52 50 48 47 46 45 43 44 43 44 46 49 52 53 53 52 52
35 37 38 40 42 43 46 48 49 49 50 50 52 54 55 55 56 57 59 61 62 63 66 64 59 56 53 51 48 44 41 40 37 36 38 39 38 37 40 42 45 48 48
35 36 37 39 42 46 49 51 54 54 55 55 57 59 60 61 61 63 65 67 71 76 70 63 60 59 58 55 50 45 42 40 39 40 42 43 43 42 41 42 43 44 45
33 35 36 39 43 46 48 49 52 55 58 58 59 61 63 64 65 71 74 76 80 72 64 63 64 59 53 48 44 41 40 40 39 37 37 38 38 38 41 43 42 44 47
33 35 39 44 48 52 55 57 59 60 61 62 62 63 65 73 77 77 84 78 73 70 70 63 54 51 48 45 42 38 35 32 29 31 33 35 36 40 43 46 48 48 44
41 42 45 47 48 51 56 59 64 63 64 67 67 71 79 83 84 89 77 78 76 65 58 55 53 49 44 39 36 33 31 29 29 30 30 31 34 40 44 49 52 51 48
41 42 45 49 53 58 63 65 67 68 69 70 76 78 82 87 85 80 78 71 63 59 54 50 45 39 35 31 28 26 28 28 30 29 30 30 33 40 45 54 59 62 64
44 46 48 53 58 63 66 68 68 70 72 75 78 85 90 86 79 75 71 63 56 50 45 38 32 27 24 22 21 22 23 29 30 29 29 29 32 39 48 62 70 74 76
48 50 52 57 63 66 66 67 69 72 77 83 87 87 81 79 75 65 56 52 47 39 32 27 22 21 21 22 22 22 22 24 29 28 29 32 38 45 56 77 82 86 86
50 53 55 59 61 62 63 63 66 73 78 82 79 75 69 60 53 47 43 39 32 28 25 23 23 23 24 25 26 26 25 27 30 29 30 37 44 57 75 84 90 95 94
50 55 55 55 55 55 60 66 65 70 68 64 55 48 45 44 41 39 35 29 26 26 26 25 27 27 27 28 29 31 36 38 39 42 36 43 55 71 82 90 95 95 96
51 51 50 51 57 61 63 66 68 60 48 43 43 42 40 39 36 31 27 25 25 25 27 28 31 30 30 30 33 35 42 49 50 41 43 55 73 84 91 93 94 95 96